Location: Peterborough
(44.3091°N, 78.3197°W)
Time: 17:57:52
(UTC-04:00)

Transit 4A - Pass Details

Date: 31 March 2023
Orbit: 864 x 980 km, 66.8° (Epoch: 04 June)

Event Time Altitude Azimuth Distance (km) Brightness Sun altitude
Rises 15:10:15 0° 326° (NW) 3,573 10.8 42.9°
Reaches altitude 10° 15:12:46 10° 325° (NW) 2,644 10.3 42.6°
Maximum altitude 15:18:54 72° 242° (WSW) 998 9.3 41.9°
Drops below altitude 10° 15:25:11 10° 159° (SSE) 2,699 10.7 41.1°
Sets 15:27:46 0° 158° (SSE) 3,652 11.2 40.8°
